Location: Treviso
(45.6669°N, 12.2430°E)
Time: 00:38:27
(UTC+02:00)

ISS - Pass Details

Date: 29 May 2017
Orbit: 402 x 408 km, 51.6° (Epoch: 30 May)

Event Time Altitude Azimuth Distance (km) Brightness Sun altitude
Rises 02:26:12 0° 296° (WNW) 2,332 0.1 -20.4°
Reaches altitude 10° 02:28:18 10° 292° (WNW) 1,468 -1.0 -20.3°
Enters shadow 02:28:36 12° 291° (WNW) 1,348 -1.2 -20.3°
